7 * 24
多渠道服务支持
STARLINK-36859(NORAD编号68710)是美国SpaceX公司星链(Starlink)互联网卫星星座的一员,属于第二代星链组网卫星。该卫星运行在近地轨道,依托星链低轨星座架构,为全球提供高速低延迟互联网接入服务,重点覆盖偏远地区、海洋和网络基础设施匮乏区域。作为SpaceX大规模星座部署的组成部分,它采用成熟的星链卫星设计,支持Ku/Ka频段通信,部分批次型号搭载激光星间链路,提升组网通信能力。截至2026年初,SpaceX已累计发射超万颗星链卫星,该卫星目前处于在轨运行状态,服务全球星链网络覆盖。
美国
(US)
| 数据来源 | 国际轨道数据 |
| 星历时间: | 2026-05-24T12:00:02+0800 1天前 查看轨道信息 |
| 半长轴: | 6796.999km |
| 偏心率: | 0.0000464 |
| 轨道倾角: | 53.160° |
| 近地点辐角 | 92.806° |
| 升交点赤经 | 44.002° |
| 平近点角 | 202.499° |
| 近地点: | 418.546km |
| 远地点: | 419.178km |
| 周期: | 92.947分钟 |
| 每日圈数: | 15.492696 |